| time (UTC) | temp F | wind direction | speed MPH | gust MPH | rain 1hr in | rain 24hr in | rain mn in | humidity % | barometer mb |
| 20260510073011 | 0 | 333 | 4.0 | 9.0 | 0.00 | 0.15 | 0.13 | 1012.4 | |
| 20260510071507 | 0 | 207 | 2.0 | 5.0 | 0.00 | 0.15 | 0.13 | 1012.7 | |
| 20260510070001 | 0 | 207 | 0.0 | 5.0 | 0.00 | 0.15 | 0.13 | 1012.8 | |
| 20260510064602 | 0 | 207 | 5.0 | 7.0 | 0.00 | 0.15 | 0.13 | 1012.9 | |
| 20260510063053 | 0 | 207 | 4.0 | 6.0 | 0.00 | 0.15 | 0.13 | 1013.0 | |
| 20260510061556 | 0 | 209 | 4.0 | 6.0 | 0.00 | 0.15 | 0.13 | 1013.2 | |
| 20260510060046 | 0 | 209 | 3.0 | 6.0 | 0.00 | 0.15 | 0.13 | 1013.2 | |
| 20260510054540 | 0 | 209 | 5.0 | 8.0 | 0.01 | 0.17 | 0.13 | 1013.3 | |
| 20260510053036 | 0 | 209 | 5.0 | 9.0 | 0.01 | 0.17 | 0.13 | 1013.4 | |
| 20260510051532 | 0 | 218 | 5.0 | 9.0 | 0.01 | 0.17 | 0.13 | 1013.4 | |
| 20260510050027 | 0 | 232 | 4.0 | 8.0 | 0.01 | 0.17 | 0.13 | 1013.6 | |
| 20260510044523 | 0 | 236 | 4.0 | 6.0 | 0.01 | 0.16 | 0.13 | 1013.7 | |
| 20260510043019 | 0 | 239 | 5.0 | 7.0 | 0.02 | 0.16 | 0.13 | 1013.9 | |
| 20260510041514 | 0 | 298 | 4.0 | 7.0 | 0.02 | 0.16 | 0.13 | 1014.0 | |
| 20260510040010 | 0 | 298 | 0.0 | 2.0 | 0.04 | 0.16 | 0.13 | 1014.1 | |
| 20260510034505 | 0 | 298 | 2.0 | 5.0 | 0.04 | 0.15 | 0.12 | 1014.2 | |
| 20260510033108 | 0 | 298 | 0.0 | 2.0 | 0.04 | 0.14 | 0.11 | 1014.4 | |
| 20260510031603 | 0 | 298 | 0.0 | 1.0 | 0.04 | 0.13 | 0.10 | 1014.5 | |
| 20260510030052 | 0 | 298 | 0.0 | 5.0 | 0.04 | 0.12 | 0.09 | 1014.6 | |
| 20260510024548 | 0 | 298 | 0.0 | 8.0 | 0.04 | 0.11 | 0.08 | 1014.9 | |
| 20260510023045 | 0 | 298 | 1.0 | 11.0 | 0.04 | 0.10 | 0.07 | 1014.9 | |
| 20260510021540 | 0 | 300 | 5.0 | 9.0 | 0.05 | 0.09 | 0.06 | 1015.0 | |
| 20260510020034 | 0 | 300 | 4.0 | 6.0 | 0.04 | 0.08 | 0.05 | 1015.1 | |
| 20260510014529 | 0 | 300 | 1.0 | 10.0 | 0.04 | 0.07 | 0.04 | 1015.2 | |
| 20260510013025 | 0 | 305 | 1.0 | 4.0 | 0.02 | 0.06 | 0.02 | 1015.3 | |
| 20260510011521 | 0 | 306 | 7.0 | 14.0 | 0.02 | 0.05 | 0.02 | 1015.5 | |
| 20260510010015 | 0 | 324 | 8.0 | 11.0 | 0.01 | 0.04 | 0.01 | 1015.5 | |
| 20260510004511 | 0 | 304 | 7.0 | 14.0 | 0.00 | 0.03 | 0.00 | 1015.6 | |
| 20260510003008 | 0 | 303 | 2.0 | 9.0 | 0.00 | 0.03 | 0.00 | 1015.6 | |
| 20260510001502 | 0 | 325 | 5.0 | 8.0 | 0.00 | 0.03 | 0.00 | 1015.7 | |
| 20260509234553 | 0 | 286 | 2.0 | 6.0 | 0.00 | 0.03 | 0.00 | 1015.6 | |
| 20260509233053 | 0 | 285 | 0.0 | 0.0 | 0.00 | 0.03 | 0.00 | 1015.9 | |
| 20260509231554 | 0 | 285 | 3.0 | 6.0 | 0.00 | 0.03 | 0.00 | 1016.0 | |
| 20260509230042 | 0 | 285 | 0.0 | 7.0 | 0.00 | 0.03 | 0.00 | 1016.0 | |
| 20260509224538 | 0 | 286 | 4.0 | 8.0 | 0.00 | 0.03 | 0.00 | 1016.3 | |
| 20260509223034 | 0 | 283 | 3.0 | 8.0 | 0.00 | 0.03 | 0.00 | 1016.4 | |
| 20260509221527 | 0 | 281 | 1.0 | 6.0 | 0.00 | 0.03 | 0.00 | 1016.4 | |
| 20260509220022 | 0 | 281 | 1.0 | 6.0 | 0.00 | 0.03 | 0.00 | 1016.3 | |
| 20260509214525 | 0 | 281 | 1.0 | 6.0 | 0.00 | 0.03 | 0.03 | 1016.4 | |
| 20260509213017 | 0 | 236 | 3.0 | 7.0 | 0.00 | 0.03 | 0.03 | 1016.2 | |
| 20260509211513 | 0 | 229 | 6.0 | 14.0 | 0.00 | 0.03 | 0.03 | 1016.4 | |
| 20260509210008 | 0 | 273 | 0.0 | 7.0 | 0.00 | 0.03 | 0.03 | 1016.3 | |
| 20260509204504 | 0 | 307 | 2.0 | 5.0 | 0.00 | 0.03 | 0.03 | 1016.2 | |
| 20260509203100 | 0 | 307 | 2.0 | 6.0 | 0.00 | 0.03 | 0.03 | 1016.3 | |
| 20260509201556 | 0 | 308 | 3.0 | 10.0 | 0.00 | 0.03 | 0.03 | 1016.5 | |
| 20260509200105 | 0 | 290 | 3.0 | 8.0 | 0.00 | 0.03 | 0.03 | 1016.3 | |
| 20260509194546 | 0 | 273 | 1.0 | 7.0 | 0.00 | 0.03 | 0.03 | 1016.3 | |
| 20260509193041 | 0 | 252 | 1.0 | 12.0 | 0.00 | 0.03 | 0.03 | 1016.3 | |
| 20260509191538 | 0 | 306 | 3.0 | 8.0 | 0.01 | 0.03 | 0.03 | 1016.3 | |
| 20260509190037 | 0 | 314 | 7.0 | 11.0 | 0.01 | 0.03 | 0.03 | 1016.3 | |
| 20260509184541 | 0 | 314 | 3.0 | 5.0 | 0.01 | 0.03 | 0.03 | 1016.3 | |
| 20260509183036 | 0 | 314 | 6.0 | 16.0 | 0.01 | 0.03 | 0.03 | 1016.3 | |
| 20260509181544 | 0 | 284 | 9.0 | 19.0 | 0.00 | 0.02 | 0.02 | 1016.1 | |
| 20260509180035 | 0 | 323 | 6.0 | 14.0 | 0.00 | 0.02 | 0.02 | 1016.0 | |
| 20260509174536 | 0 | 254 | 2.0 | 10.0 | 0.00 | 0.02 | 0.02 | 1016.1 | |
| 20260509173035 | 0 | 263 | 5.0 | 11.0 | 0.00 | 0.02 | 0.02 | 1016.2 | |
| 20260509171534 | 0 | 252 | 1.0 | 8.0 | 0.00 | 0.02 | 0.02 | 1016.1 | |
| 20260509170032 | 0 | 293 | 4.0 | 13.0 | 0.00 | 0.02 | 0.02 | 1016.0 | |
| 20260509164532 | 0 | 254 | 4.0 | 13.0 | 0.00 | 0.02 | 0.02 | 1015.8 | |
| 20260509163041 | 0 | 244 | 3.0 | 14.0 | 0.00 | 0.02 | 0.02 | 1015.8 | |
| 20260509161530 | 0 | 232 | 1.0 | 15.0 | 0.00 | 0.02 | 0.02 | 1015.6 | |
| 20260509160030 | 0 | 182 | 4.0 | 12.0 | 0.00 | 0.02 | 0.02 | 1015.8 | |
| 20260509154529 | 0 | 189 | 5.0 | 10.0 | 0.00 | 0.02 | 0.02 | 1015.7 | |
| 20260509153032 | 0 | 184 | 13.0 | 21.0 | 0.00 | 0.02 | 0.02 | 1016.0 | |
| 20260509151528 | 0 | 223 | 5.0 | 14.0 | 0.00 | 0.02 | 0.02 | 1016.1 | |
| 20260509150028 | 0 | 198 | 7.0 | 21.0 | 0.00 | 0.02 | 0.02 | 1016.1 | |
| 20260509144524 | 0 | 192 | 8.0 | 14.0 | 0.00 | 0.02 | 0.02 | 1016.3 | |
| 20260509143019 | 0 | 175 | 9.0 | 19.0 | 0.00 | 0.02 | 0.02 | 1016.5 | |
| 20260509141531 | 0 | 176 | 12.0 | 20.0 | 0.00 | 0.02 | 0.02 | 1016.4 | |
| 20260509140012 | 0 | 178 | 9.0 | 22.0 | 0.00 | 0.02 | 0.02 | 1016.6 | |
| 20260509134608 | 0 | 188 | 11.0 | 22.0 | 0.00 | 0.02 | 0.02 | 1016.6 | |
| 20260509133004 | 0 | 193 | 10.0 | 25.0 | 0.00 | 0.02 | 0.02 | 1016.5 | |
| 20260509131612 | 0 | 190 | 7.0 | 20.0 | 0.00 | 0.02 | 0.02 | 1016.5 | |
| 20260509130101 | 0 | 227 | 9.0 | 16.0 | 0.00 | 0.02 | 0.02 | 1016.4 | |
| 20260509124557 | 0 | 271 | 3.0 | 29.0 | 0.00 | 0.02 | 0.02 | 1016.4 | |
| 20260509123054 | 0 | 185 | 6.0 | 11.0 | 0.00 | 0.02 | 0.02 | 1016.5 | |
| 20260509121542 | 0 | 280 | 5.0 | 18.0 | 0.00 | 0.02 | 0.02 | 1016.7 | |
| 20260509120037 | 0 | 202 | 4.0 | 11.0 | 0.00 | 0.02 | 0.02 | 1016.5 | |
| 20260509114538 | 0 | 186 | 10.0 | 24.0 | 0.00 | 0.02 | 0.02 | 1016.3 | |
| 20260509113036 | 0 | 197 | 4.0 | 20.0 | 0.00 | 0.02 | 0.02 | 1016.3 | |
| 20260509111540 | 0 | 173 | 12.0 | 26.0 | 0.00 | 0.02 | 0.02 | 1016.3 | |
| 20260509110021 | 0 | 185 | 9.0 | 21.0 | 0.00 | 0.02 | 0.02 | 1016.4 | |
| 20260509104526 | 0 | 187 | 7.0 | 19.0 | 0.00 | 0.02 | 0.02 | 1016.3 | |
| 20260509103014 | 0 | 179 | 7.0 | 21.0 | 0.01 | 0.02 | 0.02 | 1016.3 | |
| 20260509101510 | 0 | 192 | 7.0 | 18.0 | 0.01 | 0.02 | 0.02 | 1016.2 | |
| 20260509100006 | 0 | 191 | 7.0 | 13.0 | 0.01 | 0.02 | 0.02 | 1016.2 | |
| 20260509094605 | 0 | 189 | 8.0 | 16.0 | 0.01 | 0.02 | 0.02 | 1016.1 | |
| 20260509093059 | 0 | 187 | 6.0 | 16.0 | 0.00 | 0.02 | 0.02 | 1016.1 | |
| 20260509091604 | 0 | 173 | 8.0 | 15.0 | 0.00 | 0.02 | 0.02 | 1016.1 | |
| 20260509090050 | 0 | 190 | 7.0 | 19.0 | 0.00 | 0.02 | 0.02 | 1016.2 | |
| 20260509084545 | 0 | 192 | 11.0 | 23.0 | 0.00 | 0.02 | 0.02 | 1016.2 | |
| 20260509083043 | 0 | 219 | 12.0 | 23.0 | 0.00 | 0.02 | 0.02 | 1016.4 | |
| 20260509081534 | 0 | 182 | 11.0 | 16.0 | 0.00 | 0.02 | 0.02 | 1016.2 | |
| 20260509080033 | 0 | 194 | 6.0 | 15.0 | 0.00 | 0.02 | 0.02 | 1016.2 | |
| 20260509074525 | 0 | 180 | 8.0 | 15.0 | 0.00 | 0.02 | 0.02 | 1016.1 |